Skip Page Navigation
NASA JPL Caltech
NASA Logo - Jet Propulsion Laboratory + View the NASA Portal
+ Center for Near-Earth Object Studies
JPL Home Earth Solar System Stars & Galaxies Technology
JPL Solar System Dynamics
BODIES ORBITS EPHEMERIDES TOOLS PHYSICAL DATA DISCOVERY FAQ SITE MAP
IMPORTANT: The SSD Announcement email list is now available. Major changes are coming in the near future, including possible hostname and/or URL changes. To be notified of such changes, subscribe to this email list.

Please visit this page for more details.


JPL Small-Body Database Browser
Search: [ help ]  
39791 Jameshesser (1997 PH4)
Classification: Inner Main-belt Asteroid          SPK-ID: 2039791
Ephemeris | Orbit Diagram | Orbital Elements | Mission Design | Physical Parameters | Discovery Circumstances ]

[ show orbit diagram ]
Orbital Elements at Epoch 2459000.5 (2020-May-31.0) TDB
Reference: JPL 25 (heliocentric ecliptic J2000)
 Element Value Uncertainty (1-sigma)   Units 
e .1050497570933272 3.5753e-08  
a 1.946260156913673 6.6397e-09 au
q 1.741806000189471 7.1412e-08 au
i 23.6117204382241 4.7429e-06 deg
node 150.5120800845987 9.96e-06 deg
peri 279.2621951942572 2.5474e-05 deg
M 46.52060836827551 2.2145e-05 deg
tp 2458872.342906418932
(2020-Jan-23.84290642)
6.1014e-05 TDB
period 991.7444183865629
2.72
5.075e-06
1.389e-08
d
yr
n .3629967492891691 1.8576e-09 deg/d
Q 2.150714313637875 7.3372e-09 au
  Orbit Determination Parameters
   # obs. used (total)      1314  
   data-arc span      25526 days (69.89 yr)  
   first obs. used      1950-02-17  
   last obs. used      2020-01-07  
   planetary ephem.      DE431  
   SB-pert. ephem.      SB431-N16  
   condition code      0  
   norm. resid. RMS      .48819  
   source      ORB  
   producer      Otto Matic  
   solution date      2020-Jan-29 05:52:12  

Additional Information
 Earth MOID = .862836 au 
 Jupiter MOID = 3.05271 au 
 T_jup = 3.788 
[ show covariance matrix ]

Ephemeris | Orbit Diagram | Orbital Elements | Mission Design | Physical Parameters | Discovery Circumstances ]

Physical Parameter Table
Parameter Symbol Value Units Sigma Reference Notes
absolute magnitude H 15.1   n/a MPO502431  
diameter diameter 1.617 km 0.277 urn:nasa:pds:neowise_diameters_albedos::2.0[mainbelt] (http://adsabs.harvard.edu/abs/2011ApJ...741...68M)  
rotation period rot_per 4.829 h n/a LCDB (Rev. 2019-August); Warner et al., 2009 Published Reference List:
[Stephens, R.D. (2015) Minor Planet Bull. 42, 200-203.]
geometric albedo albedo 0.890   0.125 urn:nasa:pds:neowise_diameters_albedos::2.0[mainbelt] (http://adsabs.harvard.edu/abs/2011ApJ...741...68M)  

39791 Jameshesser           Discovered 1997 Aug. 13 by D. D. Balam at National Research Council of Canada.
James E. Hesser, acting director of the Herzberg Institute of Astrophysics and 1997 recipient of the Michael Smith Award for Science Promotion, has contributed to the study of atomic and molecular spectroscopy, rapidly varying degenerate stars, stellar populations and chemical evolution in the Milky Way and nearby galaxies.
NOTE: some special characters may not display properly (any characters within {} are an attempt to place the proper accent above a character)
Reference: 20020724/MPCPages.arcLast Updated: 2003-10-02

Alternate Designations
 1997 PH4 = 1977 CF1 = 2000 QL117 
Ephemeris | Orbit Diagram | Orbital Elements | Mission Design | Physical Parameters | Discovery Circumstances ]
ABOUT SSD CREDITS/AWARDS PRIVACY/COPYRIGHT GLOSSARY LINKS
FirstGov 2020-Feb-18 01:11 UT
(server date/time)  
NASA Home Page
Site Manager:   Ryan S. Park
Webmaster  Alan B. Chamberlin